Location: Unspecified
(0.0000°N, 0.0000°E)
Time: 10:31:30
(UTC+02:00)

Iridium 39 - Visible Passes

Search period start: 28 September 2016 00:00
Search period end: 08 October 2016 00:00
Orbit: 723 x 753 km, 86.4° (Epoch: 26 September)

Date Brightness Start Highest point End Pass type
(mag) Time Alt. Az. Time Alt. Az. Time Alt. Az.
03 Oct 8.4 21:51:28 11° S 21:51:28 11° S 21:51:36 10° S visible
04 Oct 7.3 21:03:58 21° SE 21:03:58 21° SE 21:05:59 10° SSE visible
04 Oct 8.9 22:43:21 10° WSW 22:43:21 10° WSW 22:43:32 10° WSW visible
05 Oct 7.0 21:51:28 10° NNW 21:56:10 42° W 22:00:57 10° SSW visible
06 Oct 5.9 21:06:17 10° NNE 21:11:11 58° E 21:16:09 10° S visible
07 Oct 7.2 20:22:50 10° NE 20:26:13 18° E 20:29:37 10° SE visible
07 Oct 8.1 22:01:53 10° NW 22:05:49 23° W 22:09:46 10° SW visible
